Weather History for Lovelock, NV

Change the Weather History Date:

Thursday, December 20, 2012

  Actual Average Record
Temperature  
Mean Temperature 23 °F -  
Max Temperature 45 °F 38 °F 62 °F (1955)
Min Temperature 1 °F 12 °F -16 °F (1978)
Degree Days  
Heating Degree Days 42    
Moisture  
Dew Point 7 °F    
Average Humidity 53    
Maximum Humidity 84    
Minimum Humidity 21    
Precipitation  
Precipitation 0.00 in - - ()
Sea Level Pressure  
Sea Level Pressure 30.16 in    
Wind  
Wind Speed 2 mph (SSW)    
Max Wind Speed 9 mph    
Max Gust Speed -    
Visibility 10 miles    
Events      
Averages and records for this station are not official NWS values.
T = Trace of Precipitation, MM = Missing Value Source: NWS Daily Summary

Daily Weather History Graph

Daily Weather History Graph

Search for Another Location

Airport:

Trip Planner

Search our weather history database for the weather conditions in past years. The results will help you decide how hot, cold, wet, or windy it might be!

Date:

Astronomy

Dec. 20, 2012 Rise Set
Actual Time 7:12 AM PST 4:31 PM PST
Civil Twilight 6:41 AM PST 5:02 PM PST
Nautical Twilight 6:07 AM PST 5:36 PM PST
Astronomical Twilight 5:34 AM PST 6:09 PM PST
Moon 11:52 AM PST (12/20) 12:04 AM PST (12/20)
Length of Visible Light 10h 20m
Length of Day
9h 19m
First Quarter, 56% of the Moon is Illuminated
Dec 20
First Quarter
Dec 28
Full
Jan 4
Last Quarter
Jan 11
New
Jan 18
First Quarter

Hourly Weather History & Observations

Time (PST) Temp. Windchill Dew Point Humidity Pressure Visibility Wind Dir Wind Speed Gust Speed Precip Events Conditions
12:53 AM 9.0 °F - 3.0 °F 77% 30.30 in 10.0 mi Calm Calm - N/A   Clear
1:53 AM 10.9 °F - 7.0 °F 84% 30.28 in 10.0 mi Calm Calm - N/A   Clear
2:53 AM 9.0 °F - 5.0 °F 84% 30.27 in 10.0 mi Calm Calm - N/A   Clear
4:53 AM 7.0 °F 0.1 °F 3.0 °F 84% 30.27 in 10.0 mi ENE 3.5 mph - N/A   Clear
5:53 AM 7.0 °F - 3.0 °F 84% 30.28 in 10.0 mi Calm Calm - N/A   Clear
6:53 AM 1.9 °F - -2.0 °F 83% 30.31 in 10.0 mi Calm Calm - N/A   Clear
7:53 AM 8.1 °F -0.5 °F 3.9 °F 83% 30.29 in 10.0 mi West 4.6 mph - N/A   Clear
8:53 AM 18.0 °F - 10.9 °F 74% 30.26 in 10.0 mi Calm Calm - N/A   Clear
9:53 AM 27.0 °F - 12.0 °F 53% 30.22 in 10.0 mi Calm Calm - N/A   Clear
10:53 AM 32.0 °F - 10.0 °F 40% 30.19 in 10.0 mi Calm Calm - N/A   Clear
11:53 AM 37.0 °F - 10.0 °F 33% 30.14 in 10.0 mi Calm Calm - N/A   Clear
12:53 PM 39.0 °F - 8.1 °F 28% 30.12 in 10.0 mi Calm Calm - N/A   Clear
1:53 PM 43.0 °F 40.3 °F 9.0 °F 25% 30.07 in 10.0 mi SW 4.6 mph - N/A   Clear
2:53 PM 45.0 °F 40.1 °F 7.0 °F 21% 30.05 in 10.0 mi SW 9.2 mph - N/A   Clear
3:53 PM 43.0 °F 39.5 °F 10.0 °F 26% 30.06 in 10.0 mi South 5.8 mph - N/A   Clear
4:53 PM 35.1 °F - 9.0 °F 34% 30.08 in 10.0 mi Calm Calm - N/A   Clear
5:53 PM 32.0 °F 25.6 °F 8.1 °F 37% 30.10 in 10.0 mi WSW 6.9 mph - N/A   Clear
6:53 PM 30.0 °F 24.1 °F 7.0 °F 38% 30.13 in 10.0 mi WSW 5.8 mph - N/A   Clear
7:53 PM 28.0 °F 21.7 °F 8.1 °F 43% 30.11 in 10.0 mi South 5.8 mph - N/A   Clear
8:53 PM 28.9 °F 25.2 °F 8.1 °F 41% 30.08 in 10.0 mi South 3.5 mph - N/A   Clear
9:53 PM 24.1 °F 19.7 °F 7.0 °F 48% 30.07 in 10.0 mi South 3.5 mph - N/A   Clear
10:53 PM 32.0 °F - 8.1 °F 37% 30.04 in 10.0 mi Calm Calm - N/A   Clear
11:53 PM 18.0 °F 11.1 °F 5.0 °F 57% 30.04 in 10.0 mi NNE 4.6 mph - N/A   Clear